Location: Bu�n Treun
(12.1333°N, 108.3167°E)
Time: 05:46:09
(UTC+00:00)

BEESAT - Pass Details

Date: 30 September 2021
Orbit: 699 x 709 km, 98.6° (Epoch: 16 October)

Event Time Altitude Azimuth Distance (km) Brightness Sun altitude
Rises 12:22:48 0° 3° (N) 3,071 ? -26.6°
Reaches altitude 10° 12:25:05 10° 358° (N) 2,154 ? -27.1°
Maximum altitude 12:29:38 50° 284° (WNW) 885 ? -28.2°
Drops below altitude 10° 12:34:12 10° 209° (SSW) 2,157 ? -29.4°
Sets 12:36:31 0° 203° (SSW) 3,076 ? -29.9°
